Regional Weather Roundup
Issued by NWS Charleston, SC

Current Version | Previous Version | Graphics & Text | Print | Product List | Glossary On
Versions: 1 2 3 4 5 6 7 8 9 10 11 12 13 14 15 16 17 18 19 20 21 22 23 24 25 26 27 28 29 30 31 32 33 34 35 36 37 38 39 40 41 42 43 44 45 46 47 48 49 50
000
ASUS42 KCHS 181425
RWRCHS

REGIONAL WEATHER ROUNDUP
NATIONAL WEATHER SERVICE CHARLESTON SC
1000 AM EDT THU SEP 18 2014

NOTE: "FAIR" INDICATES FEW OR NO CLOUDS BELOW 12,000 FEET WITH NO
SIGNIFICANT WEATHER AND/OR OBSTRUCTIONS TO VISIBILITY.

NOT ALL STATIONS ARE QUALITY CONTROLLED BY THE NATIONAL
WEATHER SERVICE. USE DATA WITH CAUTION...ESPECIALLY
DEWPOINT OBSERVATIONS.

SCZ027-030-031-034>040-042>050-181500-
...SOUTH CAROLINA...

CITY           SKY/WX    TMP DP  RH WIND       PRES   REMARKS
N CHARLESTON   MOSUNNY   79  70  74 E5        29.96R
WATERFRONT PRK   N/A     79 N/A N/A N6          N/A
FORT JOHNSON   NOT AVBL
MOUNT PLEASANT FAIR      81  72  74 CALM      29.96R
JOHNS ISLAND   MOSUNNY   81  81 100 CALM      29.96S HX  91
PINOPOLIS        N/A     79  72  78 E2        29.89R
MONCKS CORNER    N/A     79  73  83 CALM      29.96R
SUMMERVILLE    FAIR      75  73  94 N3        29.97R
BEAUFORT MCAS  MOSUNNY   78  71  79 W5        29.95R
BEAUFORT ARPT  FAIR      79  73  83 N5        29.95R
HILTON HEAD IS SUNNY     79  77  94 CALM      29.95S
GEORGETOWN     NOT AVBL
WALTERBORO     SUNNY     77  73  88 CALM      29.98R
ORANGEBURG     CLOUDY    75  68  78 VRB3      29.99R
BARNWELL       CLOUDY    73  72  94 NE3       29.99R
AIKEN          FAIR      72  72 100 CALM      30.03R
MANNING        CLOUDY    70 N/A N/A NE3       29.98R
KINGSTREE      NOT AVBL
COLUMBIA       FOG       68  66  93 N5        29.99R VSB 1
SUMTER         CLOUDY    70  66  88 NE7       29.97R FOG
FLORENCE       CLOUDY    72  66  81 N5        29.99R
MYRTLE BEACH   SUNNY     75  68  78 NE6       29.96R
N MYRTLE BEACH SUNNY     77  69  76 NE6       29.96R

$$

GAZ063-065-086>088-099>101-113>116-118-119-134-136>141-150-181500-
...GEORGIA...

CITY           SKY/WX    TMP DP  RH WIND       PRES   REMARKS
SAVANNAH ARPT  SUNNY     79  72  79 E5        29.95R
HUNTER AAF     SUNNY     80  72  78 N3        29.93R
FORT STEWART   PTSUNNY   73  70  88 NE2       29.94R
STATESBORO     NOT AVBL
SYLVANIA       MOSUNNY   76  74  93 E5        29.98R
CLAXTON        FAIR      75  75 100 CALM      29.96R
THOMSON        CLOUDY    73  73  98 NE3       30.04R
AUGUSTA-BUSH   CLOUDY    71  69  93 N3        29.98R FOG
AUGUSTA-DANIEL CLOUDY    71  68  90 N7        30.00R FOG
SWAINSBORO     CLOUDY    75  75 100 CALM      29.99R
VIDALIA        CLOUDY    72  72 100 NE3       29.98R FOG
ALMA           SUNNY     77  70  79 CALM      29.94R HAZE
WAYCROSS       SUNNY     82  76  81 CALM      29.94S HX  90
JESUP          FAIR      81  73  78 CALM      29.95R
BRUNSWICK      SUNNY     81  72  74 CALM      29.95R
SAINT SIMONS   SUNNY     80  71  74 CALM      29.93R

$$

SCZ027-028-034-036>038-045-046-048>050-GAZ119-141-181500-
...LAKE AND SUPPLEMENTAL COASTAL OBSERVATIONS...

STATION/POSITION TIME  TEMP    WIND        PRES    WAVE   SWELL
                       AIR SEA DIR/SP/G            HT/PER HT/PER/DIR
                 (UTC) (F)     (DEG/KT/KT) (MB)    (FT/S) (FT/S/D)
UPR LAKE MARION  NOT AVBL
WINYAH BAY       1400   77      40/  1     1014.0S
LAKE MURRAY      1400   67      30/  1/  4 1014.9S
ACE BASIN NERRS  1400   76      40/  1     1014.0S
FORT PULASKI     1400   78      40/  7/  8 1014.2R
SAPELO ISLAND    1400   80     240/  2     1014.0S

$$

ANZ835-935-AMZ111-154-330-350-352-354-374-450-454-472-181500-
...C-MAN AND BUOY OBSERVATIONS...

STATION/POSITION TIME  TEMP    WIND        PRES    WAVE   SWELL
                       AIR SEA DIR/SP/G            HT/PER HT/PER/DIR
                 (UTC) (F)     (DEG/KT/KT) (MB)    (FT/S) (FT/S/D)
FOLLY BEACH CMAN 1400   76      20/  7/  8 1014.8R
BUOY 41004       1400   79 83   10/  6/  6 1013.8R   4/11   3/11
BUOY 41008       1400   81 84  140/  4/  4 1013.6R   2/14   2/ 90/14
5E ST. MARYS GA  1400      84                N/A     2/13   2/110/13
FRYING PAN BUOY  NOT AVBL
BUOY 41025       1400   74      10/ 19/ 23 1014.1R   6/12   3/ 90/12
CAPE LOOKOUT NC  1400   75      20/ 14/ 18 1014.6R
BUOY 41002       1327   79 82  350/ 10/ 12 1013.7R   4/11   3/ 60/11
BUOY 41010       1400   81 85   30/  6/  8 1013.5R   5/14   5/ 50/14
BUOY 41012       NOT AVBL
ST AUGUSTINE FL  1400   80     340/  4/  5 1014.5R
CAPERS NEARSHORE 1300   76      40/ 10/ 12   N/A
FRIPP NEARSHORE  NOT AVBL


$$


USA.gov is the U.S. government's official web portal to all federal, state and local government web resources and services.